map of CRD home
CRD - Airport
Location
City:  Comodoro Rivadavia, Chubut, Argentina
Name:General Enrique Mosconi International Airport
ICAO:SAVC
IATA:CRD

Details
Type:Airport (Aerodrome, Airfield)
Use:Public/Civil, Military, International (customs port of entry)
Latitude:4547'07"S (-45.785346)
Longitude:6727'56"W (-67.465507)
Datum:WGS 1984
Elevation:190 ft (58 m)
Variation:6.36E (WMM2015 magnetic declination)
-0.11 annual change
Runways:1
Longest:9275 × 164 ft (2827 × 50 m), paved

Time
Time Zone:UTC-3
Local Time:

Weather
METAR:SAVC 241000Z 27009KT CAVOK 00/M06 Q1021
TAF:SAVC 240500Z 2406/2506 29010KT CAVOK TX09/2419Z TNM02/2412Z
BECMG 2409/2412 25010KT 9999 RASN BKN020 BKN050 PROB40
TEMPO 2410/2413 2000 RASN OVC018
BECMG 2416/2418 25015KT 9999 NSW SCT030 SCT090

Related Locations
Nearby:
Farthest:UUN: 12362 mi / 19894 km
Baruun-Urt, MN

Find:

   beyond  
but within

Other Information
Maps:
NOTAMs:
Links:
Sources:

  
flag of Argentina
flag of Chubut
  

Sectional Chart

Flight Planning
at skyvector.com

Satellite Image

Google Maps Satellite view

 

Copyright © 2004-2017 Karl L. Swartz. All rights reserved.
The Great Circle Mapper name and logo are trademarks of the Great Circle Mapper.
All other trademarks mentioned herein belong to their respective owners.
Please see credits for attibutions and further copyright information.

  Follow gcmap on Facebook Follow gcmap on Twitter Follow gcmap on Google+ GCmap on LinkedIn

hCard Microformat

Geo Microformat